QPF
0.01 0.01 0.01 0.02 0.02 0.02 0.01 0.02 0.02 0.02 0.02 0.03 0.03 0.03 0.03 0.03 0.03 0.03 0.04 0.03 0.03 0.02 0.01 0.01 0.01 0.01 0.01 0.01 0.02 0.02 0.02 0.01 0.01 0.03 0.04 0.02 0.03 0.05 0.03 0.03 0.03 0.03 0.02
0.01 0.01 0.01 0.02 0.02 0.03 0.02 0.02 0.02 0.03 0.04 0.06 0.06 0.06 0.06 0.06 0.06 0.05 0.04 0.03 0.03 0.02 0.02 0.02 0.02 0.01 0.02 0.04 0.02 0.02 0.02 0.02 0.01 0.02 0.03 0.02 0.02 0.02 0.02 0.02 0.02 0.02 0.02
0.00 0.01 0.01 0.02 0.02 0.03 0.03 0.03 0.04 0.05 0.07 0.10 0.11 0.08 0.06 0.07 0.06 0.05 0.04 0.03 0.03 0.03 0.01 0.02 0.03 0.02 0.02 0.04 0.03 0.02 0.02 0.02 0.01 0.02 0.03 0.01 0.01 0.01 0.01 0.01 0.01 0.03 0.03
0.01 0.01 0.01 0.02 0.03 0.03 0.05 0.05 0.05 0.07 0.08 0.10 0.07 0.05 0.04 0.04 0.04 0.03 0.03 0.04 0.04 0.03 0.02 0.02 0.03 0.01 0.01 0.02 0.03 0.03 0.02 0.02 0.02 0.01 0.02 0.02 0.01 0.01 0.01 0.01 0.01 0.02 0.03
0.01 0.01 0.01 0.02 0.03 0.05 0.07 0.08 0.09 0.08 0.07 0.07 0.06 0.05 0.04 0.04 0.05 0.04 0.03 0.03 0.03 0.03 0.03 0.03 0.03 0.02 0.01 0.01 0.01 0.02 0.02 0.02 0.02 0.02 0.02 0.02 0.01 0.01 0.02 0.02 0.02 0.01 0.01
0.00 0.01 0.02 0.03 0.05 0.06 0.08 0.10 0.09 0.06 0.05 0.07 0.08 0.08 0.05 0.04 0.03 0.03 0.02 0.02 0.02 0.03 0.04 0.04 0.04 0.03 0.02 0.02 0.01 0.02 0.03 0.02 0.01 0.01 0.01 0.01 0.01 0.02 0.02 0.01 0.01 0.01 0.01
0.01 0.01 0.02 0.01 0.03 0.06 0.07 0.08 0.07 0.06 0.06 0.07 0.09 0.10 0.10 0.08 0.06 0.05 0.04 0.03 0.03 0.03 0.05 0.05 0.04 0.03 0.03 0.04 0.03 0.03 0.03 0.03 0.01 0.02 0.02 0.02 0.02 0.01 0.01 0.02 0.01 0.01 0.00
0.02 0.02 0.02 0.01 0.03 0.04 0.05 0.06 0.05 0.05 0.05 0.06 0.08 0.09 0.11 0.12 0.11 0.09 0.08 0.05 0.04 0.04 0.06 0.06 0.06 0.05 0.06 0.05 0.04 0.05 0.05 0.05 0.03 0.03 0.03 0.02 0.02 0.02 0.01 0.02 0.02 0.01 0.00
0.02 0.02 0.01 0.01 0.02 0.02 0.03 0.03 0.03 0.03 0.04 0.06 0.08 0.09 0.10 0.11 0.11 0.12 0.11 0.08 0.07 0.08 0.09 0.09 0.08 0.06 0.05 0.06 0.08 0.09 0.08 0.06 0.04 0.03 0.02 0.01 0.02 0.02 0.01 0.02 0.02 0.02 0.01
0.03 0.03 0.02 0.02 0.01 0.01 0.02 0.02 0.03 0.03 0.05 0.07 0.08 0.08 0.08 0.08 0.08 0.13 0.14 0.12 0.10 0.11 0.10 0.07 0.08 0.08 0.08 0.09 0.09 0.09 0.08 0.08 0.04 0.03 0.02 0.02 0.02 0.02 0.02 0.02 0.02 0.02 0.02
0.02 0.02 0.03 0.02 0.02 0.02 0.02 0.02 0.02 0.03 0.05 0.08 0.07 0.06 0.07 0.08 0.08 0.11 0.16 0.17 0.14 0.13 0.11 0.07 0.07 0.09 0.09 0.08 0.08 0.08 0.08 0.06 0.05 0.04 0.03 0.03 0.03 0.02 0.01 0.02 0.02 0.03 0.03
0.02 0.02 0.03 0.02 0.02 0.03 0.02 0.02 0.02 0.03 0.05 0.05 0.04 0.04 0.05 0.06 0.07 0.10 0.11 0.13 0.15 0.13 0.09 0.08 0.08 0.09 0.09 0.09 0.09 0.09 0.08 0.07 0.07 0.07 0.08 0.05 0.05 0.03 0.02 0.02 0.02 0.03 0.03
0.02 0.02 0.03 0.02 0.03 0.02 0.02 0.02 0.03 0.03 0.04 0.04 0.04 0.03 0.03 0.05 0.07 0.08 0.09 0.09 0.11 0.09 0.06 0.05 0.05 0.07 0.08 0.06 0.06 0.06 0.06 0.07 0.07 0.08 0.09 0.07 0.06 0.05 0.05 0.04 0.03 0.03 0.03
0.02 0.02 0.02 0.02 0.02 0.03 0.03 0.02 0.02 0.02 0.03 0.03 0.04 0.03 0.04 0.05 0.07 0.08 0.09 0.09 0.09 0.08 0.05 0.05 0.05 0.07 0.07 0.06 0.06 0.06 0.06 0.07 0.07 0.07 0.06 0.05 0.05 0.05 0.05 0.05 0.03 0.03 0.02
0.02 0.02 0.02 0.01 0.02 0.01 0.02 0.02 0.01 0.02 0.02 0.02 0.02 0.03 0.05 0.06 0.07 0.07 0.08 0.09 0.09 0.08 0.07 0.07 0.06 0.08 0.08 0.07 0.07 0.07 0.06 0.05 0.05 0.06 0.06 0.06 0.06 0.06 0.06 0.04 0.02 0.02 0.03
0.01 0.01 0.01 0.01 0.01 0.01 0.02 0.02 0.01 0.01 0.02 0.02 0.02 0.03 0.04 0.05 0.06 0.08 0.11 0.14 0.14 0.12 0.10 0.08 0.07 0.08 0.08 0.08 0.09 0.07 0.06 0.05 0.06 0.06 0.05 0.06 0.07 0.06 0.07 0.05 0.05 0.05 0.05
0.01 0.01 0.01 0.01 0.01 0.01 0.01 0.02 0.01 0.02 0.02 0.02 0.02 0.03 0.03 0.04 0.07 0.09 0.09 0.11 0.11 0.13 0.13 0.12 0.09 0.07 0.07 0.07 0.07 0.07 0.05 0.06 0.06 0.05 0.05 0.05 0.06 0.07 0.07 0.07 0.09 0.10 0.08
0.01 0.01 0.01 0.01 0.01 0.01 0.01 0.02 0.02 0.02 0.02 0.02 0.02 0.03 0.03 0.06 0.09 0.08 0.08 0.08 0.10 0.13 0.13 0.12 0.10 0.10 0.10 0.10 0.08 0.07 0.06 0.06 0.05 0.05 0.05 0.04 0.04 0.05 0.07 0.08 0.08 0.07 0.06
0.01 0.01 0.01 0.01 0.01 0.01 0.01 0.02 0.02 0.02 0.03 0.03 0.04 0.04 0.04 0.08 0.10 0.09 0.10 0.11 0.11 0.11 0.10 0.10 0.09 0.08 0.10 0.11 0.10 0.10 0.08 0.06 0.05 0.05 0.06 0.06 0.05 0.07 0.09 0.09 0.07 0.06 0.05
0.02 0.02 0.02 0.02 0.03 0.02 0.01 0.01 0.02 0.04 0.04 0.03 0.04 0.05 0.05 0.09 0.12 0.13 0.15 0.15 0.13 0.12 0.09 0.07 0.07 0.07 0.07 0.07 0.07 0.07 0.06 0.05 0.04 0.05 0.06 0.06 0.05 0.06 0.08 0.07 0.07 0.07 0.05
0.03 0.04 0.04 0.03 0.03 0.02 0.02 0.02 0.02 0.03 0.03 0.04 0.04 0.04 0.04 0.07 0.12 0.14 0.12 0.13 0.14 0.12 0.10 0.07 0.05 0.05 0.06 0.05 0.04 0.03 0.02 0.02 0.03 0.03 0.03 0.05 0.06 0.08 0.09 0.07 0.06 0.07 0.07
0.04 0.05 0.05 0.05 0.04 0.04 0.03 0.03 0.03 0.02 0.03 0.04 0.04 0.04 0.04 0.06 0.08 0.12 0.11 0.09 0.11 0.14 0.12 0.09 0.07 0.06 0.05 0.04 0.04 0.03 0.03 0.03 0.03 0.03 0.03 0.04 0.06 0.07 0.07 0.07 0.07 0.09 0.09
0.03 0.04 0.04 0.04 0.05 0.05 0.04 0.04 0.03 0.04 0.04 0.05 0.05 0.05 0.04 0.05 0.05 0.07 0.08 0.07 0.07 0.10 0.10 0.08 0.07 0.06 0.05 0.05 0.05 0.04 0.04 0.04 0.03 0.02 0.04 0.04 0.05 0.06 0.09 0.12 0.14 0.15 0.15
0.04 0.04 0.03 0.03 0.04 0.04 0.04 0.05 0.05 0.05 0.06 0.06 0.07 0.06 0.04 0.03 0.04 0.06 0.06 0.06 0.06 0.06 0.06 0.06 0.06 0.05 0.05 0.05 0.06 0.06 0.06 0.06 0.05 0.05 0.06 0.06 0.06 0.07 0.09 0.10 0.10 0.10 0.09
0.04 0.04 0.04 0.05 0.04 0.04 0.03 0.03 0.04 0.05 0.06 0.07 0.07 0.06 0.06 0.05 0.04 0.05 0.06 0.06 0.06 0.06 0.06 0.06 0.07 0.07 0.06 0.06 0.07 0.07 0.07 0.08 0.08 0.08 0.06 0.05 0.05 0.06 0.06 0.06 0.05 0.05 0.05
0.06 0.06 0.05 0.05 0.05 0.04 0.03 0.03 0.04 0.07 0.08 0.07 0.06 0.05 0.06 0.06 0.05 0.04 0.05 0.06 0.08 0.08 0.07 0.07 0.08 0.06 0.05 0.05 0.05 0.04 0.04 0.05 0.06 0.04 0.03 0.04 0.05 0.06 0.06 0.05 0.05 0.05 0.04
MSLP
1008.82 1009.01 1009.23 1009.49 1009.78 1010.12 1010.52 1010.95 1011.43 1011.93 1012.43 1012.90 1013.32 1013.68 1013.99 1014.23 1014.45 1014.65 1014.86 1015.09 1015.34 1015.62 1015.93 1016.27 1016.60 1016.95 1017.29 1017.62 1017.96 1018.28 1018.58 1018.86 1019.11 1019.30 1019.44 1019.52 1019.54 1019.51 1019.45 1019.37 1019.30 1019.25 1019.24
1008.24 1008.46 1008.72 1009.01 1009.34 1009.71 1010.12 1010.60 1011.12 1011.68 1012.24 1012.77 1013.25 1013.65 1013.97 1014.21 1014.39 1014.54 1014.70 1014.88 1015.11 1015.39 1015.72 1016.09 1016.47 1016.85 1017.23 1017.59 1017.92 1018.24 1018.53 1018.81 1019.06 1019.27 1019.44 1019.56 1019.62 1019.62 1019.58 1019.50 1019.40 1019.31 1019.24
1007.58 1007.82 1008.13 1008.48 1008.85 1009.27 1009.73 1010.24 1010.81 1011.42 1012.03 1012.63 1013.16 1013.59 1013.93 1014.17 1014.33 1014.46 1014.58 1014.73 1014.94 1015.22 1015.55 1015.94 1016.34 1016.75 1017.13 1017.49 1017.82 1018.11 1018.39 1018.66 1018.91 1019.15 1019.36 1019.53 1019.64 1019.70 1019.68 1019.61 1019.50 1019.37 1019.24
1006.87 1007.16 1007.53 1007.94 1008.37 1008.83 1009.32 1009.86 1010.46 1011.10 1011.75 1012.38 1012.95 1013.42 1013.78 1014.03 1014.20 1014.31 1014.41 1014.55 1014.76 1015.03 1015.38 1015.77 1016.18 1016.59 1016.97 1017.32 1017.62 1017.89 1018.16 1018.42 1018.68 1018.95 1019.21 1019.43 1019.61 1019.72 1019.74 1019.69 1019.57 1019.41 1019.23
1006.21 1006.56 1006.98 1007.45 1007.92 1008.40 1008.91 1009.45 1010.04 1010.67 1011.33 1011.97 1012.55 1013.05 1013.43 1013.71 1013.89 1014.02 1014.13 1014.28 1014.49 1014.78 1015.14 1015.53 1015.95 1016.35 1016.72 1017.04 1017.33 1017.58 1017.83 1018.10 1018.38 1018.68 1018.99 1019.28 1019.51 1019.67 1019.74 1019.71 1019.58 1019.39 1019.16
1005.69 1006.08 1006.55 1007.06 1007.55 1008.03 1008.51 1009.01 1009.55 1010.14 1010.75 1011.36 1011.94 1012.43 1012.84 1013.14 1013.36 1013.52 1013.68 1013.86 1014.10 1014.41 1014.78 1015.20 1015.61 1016.01 1016.37 1016.68 1016.95 1017.20 1017.44 1017.72 1018.02 1018.36 1018.72 1019.06 1019.35 1019.56 1019.66 1019.65 1019.53 1019.32 1019.06
1005.37 1005.80 1006.31 1006.83 1007.32 1007.76 1008.18 1008.59 1009.04 1009.53 1010.05 1010.60 1011.12 1011.61 1012.02 1012.34 1012.60 1012.82 1013.03 1013.27 1013.55 1013.90 1014.30 1014.74 1015.17 1015.57 1015.93 1016.24 1016.50 1016.75 1017.01 1017.29 1017.62 1018.00 1018.40 1018.78 1019.12 1019.37 1019.51 1019.51 1019.40 1019.19 1018.91
1005.30 1005.76 1006.28 1006.80 1007.25 1007.62 1007.94 1008.24 1008.55 1008.90 1009.30 1009.75 1010.21 1010.65 1011.05 1011.40 1011.70 1011.96 1012.23 1012.53 1012.88 1013.28 1013.71 1014.17 1014.63 1015.05 1015.42 1015.74 1016.02 1016.28 1016.54 1016.85 1017.21 1017.61 1018.03 1018.45 1018.82 1019.10 1019.27 1019.30 1019.21 1019.02 1018.75
1005.48 1005.96 1006.48 1006.96 1007.35 1007.63 1007.83 1007.98 1008.14 1008.35 1008.61 1008.93 1009.30 1009.68 1010.05 1010.40 1010.73 1011.04 1011.37 1011.72 1012.12 1012.57 1013.05 1013.55 1014.03 1014.48 1014.87 1015.21 1015.51 1015.79 1016.08 1016.40 1016.77 1017.19 1017.63 1018.07 1018.46 1018.77 1018.97 1019.03 1018.98 1018.82 1018.58
1005.88 1006.36 1006.86 1007.29 1007.60 1007.78 1007.85 1007.87 1007.88 1007.93 1008.05 1008.26 1008.52 1008.83 1009.16 1009.50 1009.83 1010.17 1010.53 1010.92 1011.36 1011.85 1012.37 1012.90 1013.41 1013.89 1014.32 1014.68 1015.01 1015.31 1015.62 1015.96 1016.33 1016.75 1017.19 1017.63 1018.03 1018.37 1018.60 1018.71 1018.71 1018.60 1018.42
1006.42 1006.89 1007.35 1007.72 1007.95 1008.03 1007.99 1007.89 1007.78 1007.71 1007.71 1007.80 1007.97 1008.21 1008.48 1008.78 1009.10 1009.43 1009.80 1010.20 1010.66 1011.16 1011.70 1012.26 1012.80 1013.31 1013.77 1014.17 1014.52 1014.85 1015.17 1015.51 1015.88 1016.28 1016.72 1017.15 1017.56 1017.91 1018.17 1018.34 1018.40 1018.37 1018.27
1007.02 1007.46 1007.87 1008.18 1008.33 1008.33 1008.21 1008.02 1007.82 1007.66 1007.58 1007.59 1007.68 1007.85 1008.06 1008.30 1008.58 1008.88 1009.22 1009.60 1010.05 1010.54 1011.09 1011.65 1012.21 1012.74 1013.23 1013.66 1014.05 1014.39 1014.72 1015.06 1015.42 1015.81 1016.22 1016.63 1017.04 1017.40 1017.70 1017.92 1018.06 1018.11 1018.10
1007.57 1007.98 1008.34 1008.59 1008.67 1008.61 1008.44 1008.21 1007.97 1007.77 1007.64 1007.59 1007.63 1007.73 1007.88 1008.05 1008.27 1008.51 1008.79 1009.13 1009.53 1010.00 1010.53 1011.09 1011.66 1012.21 1012.72 1013.18 1013.59 1013.95 1014.28 1014.61 1014.96 1015.32 1015.70 1016.10 1016.49 1016.86 1017.19 1017.47 1017.67 1017.81 1017.89
1008.02 1008.41 1008.72 1008.90 1008.94 1008.85 1008.66 1008.41 1008.17 1007.97 1007.83 1007.76 1007.76 1007.80 1007.89 1008.00 1008.13 1008.29 1008.51 1008.78 1009.12 1009.55 1010.04 1010.58 1011.15 1011.71 1012.23 1012.72 1013.14 1013.52 1013.86 1014.19 1014.51 1014.85 1015.20 1015.58 1015.96 1016.33 1016.68 1016.99 1017.26 1017.47 1017.62
1008.34 1008.70 1008.97 1009.11 1009.12 1009.02 1008.83 1008.60 1008.39 1008.21 1008.08 1008.01 1007.99 1008.01 1008.03 1008.08 1008.13 1008.21 1008.34 1008.54 1008.82 1009.18 1009.63 1010.15 1010.70 1011.26 1011.80 1012.29 1012.74 1013.13 1013.48 1013.80 1014.11 1014.43 1014.76 1015.11 1015.47 1015.84 1016.20 1016.54 1016.84 1017.10 1017.31
1008.55 1008.88 1009.12 1009.24 1009.23 1009.13 1008.97 1008.78 1008.60 1008.46 1008.36 1008.31 1008.28 1008.27 1008.26 1008.24 1008.23 1008.24 1008.29 1008.42 1008.63 1008.94 1009.34 1009.82 1010.35 1010.91 1011.45 1011.95 1012.41 1012.82 1013.17 1013.50 1013.80 1014.11 1014.42 1014.75 1015.09 1015.45 1015.80 1016.15 1016.47 1016.76 1017.00
1008.67 1009.01 1009.23 1009.33 1009.33 1009.25 1009.11 1008.97 1008.84 1008.74 1008.67 1008.64 1008.61 1008.59 1008.55 1008.49 1008.43 1008.39 1008.39 1008.45 1008.61 1008.86 1009.22 1009.66 1010.16 1010.70 1011.23 1011.74 1012.21 1012.62 1012.99 1013.32 1013.63 1013.93 1014.24 1014.55 1014.88 1015.22 1015.57 1015.90 1016.22 1016.51 1016.76
1008.79 1009.13 1009.36 1009.47 1009.48 1009.42 1009.32 1009.21 1009.12 1009.06 1009.03 1009.01 1009.00 1008.97 1008.92 1008.85 1008.77 1008.70 1008.66 1008.70 1008.81 1009.02 1009.34 1009.73 1010.20 1010.70 1011.21 1011.71 1012.17 1012.59 1012.98 1013.32 1013.65 1013.96 1014.26 1014.57 1014.89 1015.22 1015.54 1015.86 1016.16 1016.43 1016.67
1008.95 1009.32 1009.57 1009.71 1009.74 1009.71 1009.64 1009.57 1009.51 1009.47 1009.46 1009.47 1009.47 1009.46 1009.42 1009.36 1009.28 1009.21 1009.18 1009.19 1009.29 1009.47 1009.74 1010.09 1010.51 1010.97 1011.44 1011.91 1012.36 1012.78 1013.17 1013.53 1013.88 1014.21 1014.53 1014.84 1015.16 1015.47 1015.78 1016.07 1016.34 1016.58 1016.79
1009.21 1009.62 1009.91 1010.08 1010.15 1010.14 1010.10 1010.05 1010.02 1010.00 1010.01 1010.04 1010.07 1010.08 1010.07 1010.05 1010.01 1009.97 1009.95 1009.98 1010.07 1010.22 1010.45 1010.75 1011.11 1011.51 1011.93 1012.36 1012.78 1013.20 1013.59 1013.97 1014.34 1014.69 1015.03 1015.37 1015.69 1016.00 1016.29 1016.55 1016.79 1017.00 1017.18
1009.59 1010.04 1010.37 1010.58 1010.68 1010.71 1010.70 1010.67 1010.65 1010.66 1010.69 1010.74 1010.80 1010.85 1010.90 1010.93 1010.95 1010.97 1010.99 1011.04 1011.14 1011.28 1011.47 1011.71 1012.01 1012.33 1012.69 1013.07 1013.45 1013.84 1014.24 1014.63 1015.02 1015.40 1015.77 1016.13 1016.47 1016.78 1017.06 1017.30 1017.51 1017.69 1017.84
1010.08 1010.57 1010.93 1011.18 1011.32 1011.38 1011.39 1011.39 1011.39 1011.41 1011.47 1011.55 1011.66 1011.77 1011.88 1011.99 1012.08 1012.17 1012.26 1012.34 1012.45 1012.58 1012.73 1012.92 1013.15 1013.40 1013.69 1014.01 1014.34 1014.71 1015.09 1015.49 1015.90 1016.31 1016.71 1017.09 1017.44 1017.76 1018.03 1018.26 1018.45 1018.59 1018.71
1010.64 1011.16 1011.55 1011.83 1012.00 1012.09 1012.13 1012.15 1012.18 1012.23 1012.32 1012.44 1012.60 1012.78 1012.97 1013.16 1013.34 1013.51 1013.66 1013.80 1013.93 1014.05 1014.18 1014.32 1014.48 1014.67 1014.89 1015.14 1015.43 1015.77 1016.14 1016.54 1016.96 1017.38 1017.80 1018.20 1018.56 1018.88 1019.15 1019.36 1019.53 1019.65 1019.73
1011.25 1011.77 1012.18 1012.48 1012.67 1012.79 1012.86 1012.91 1012.96 1013.05 1013.18 1013.35 1013.57 1013.83 1014.10 1014.38 1014.66 1014.91 1015.13 1015.33 1015.48 1015.61 1015.72 1015.83 1015.94 1016.07 1016.23 1016.43 1016.68 1016.98 1017.34 1017.73 1018.15 1018.58 1019.01 1019.41 1019.77 1020.08 1020.34 1020.53 1020.67 1020.77 1020.83
1011.86 1012.37 1012.78 1013.08 1013.29 1013.44 1013.53 1013.62 1013.71 1013.84 1014.01 1014.24 1014.53 1014.86 1015.22 1015.59 1015.95 1016.28 1016.58 1016.83 1017.02 1017.17 1017.28 1017.37 1017.45 1017.54 1017.66 1017.83 1018.05 1018.32 1018.66 1019.03 1019.44 1019.86 1020.28 1020.67 1021.01 1021.30 1021.53 1021.70 1021.82 1021.88 1021.90
1012.45 1012.92 1013.32 1013.63 1013.85 1014.02 1014.15 1014.26 1014.40 1014.57 1014.79 1015.08 1015.43 1015.83 1016.27 1016.72 1017.16 1017.58 1017.94 1018.24 1018.49 1018.67 1018.79 1018.89 1018.96 1019.04 1019.15 1019.29 1019.49 1019.75 1020.06 1020.41 1020.80 1021.20 1021.58 1021.93 1022.24 1022.50 1022.69 1022.82 1022.90 1022.92 1022.91
Thickness
5802 5799 5795 5792 5787 5783 5778 5775 5771 5768 5764 5759 5756 5752 5749 5748 5747 5747 5745 5744 5742 5741 5740 5739 5738 5736 5735 5734 5733 5730 5728 5726 5726 5724 5721 5723 5724 5725 5725 5725 5724 5723 5722
5797 5797 5794 5791 5788 5784 5780 5776 5773 5769 5766 5763 5759 5755 5752 5749 5748 5747 5746 5744 5743 5742 5741 5739 5738 5737 5735 5733 5732 5730 5727 5726 5725 5722 5718 5715 5718 5722 5725 5725 5724 5724 5723
5798 5797 5795 5792 5789 5785 5782 5779 5775 5771 5767 5763 5759 5755 5751 5748 5746 5745 5744 5744 5743 5742 5741 5740 5738 5737 5736 5733 5732 5731 5728 5724 5724 5724 5719 5713 5710 5715 5721 5723 5724 5724 5724
5802 5798 5796 5794 5792 5790 5786 5781 5777 5772 5768 5764 5760 5755 5750 5747 5747 5747 5745 5744 5743 5742 5741 5740 5739 5738 5736 5734 5733 5732 5730 5727 5723 5722 5722 5721 5719 5714 5713 5719 5722 5723 5724
5804 5801 5800 5798 5796 5792 5787 5782 5777 5773 5769 5765 5762 5757 5754 5751 5749 5747 5745 5744 5743 5742 5742 5741 5739 5738 5737 5735 5734 5732 5730 5729 5726 5723 5722 5720 5718 5717 5713 5712 5716 5720 5723
5805 5803 5801 5797 5794 5792 5787 5782 5777 5773 5770 5766 5762 5758 5755 5751 5748 5746 5744 5743 5742 5742 5741 5740 5739 5738 5737 5736 5734 5733 5731 5729 5728 5726 5724 5722 5719 5717 5715 5712 5713 5715 5720
5805 5802 5799 5796 5794 5791 5788 5783 5777 5773 5771 5767 5763 5760 5756 5753 5750 5748 5745 5743 5741 5741 5741 5741 5739 5738 5737 5736 5735 5733 5731 5730 5728 5727 5726 5725 5724 5722 5719 5715 5713 5713 5717
5804 5803 5802 5799 5796 5793 5790 5784 5779 5775 5772 5768 5764 5761 5757 5754 5751 5749 5747 5745 5744 5744 5743 5741 5740 5739 5737 5736 5735 5733 5732 5731 5729 5728 5727 5725 5725 5723 5722 5719 5715 5711 5713
5804 5803 5802 5800 5798 5794 5791 5787 5781 5776 5773 5770 5765 5761 5758 5755 5753 5751 5749 5746 5745 5744 5743 5741 5740 5739 5738 5736 5735 5733 5732 5730 5729 5728 5727 5725 5725 5724 5723 5721 5719 5714 5709
5802 5802 5801 5800 5798 5796 5792 5787 5782 5778 5774 5771 5766 5763 5760 5757 5755 5751 5748 5747 5746 5744 5742 5741 5740 5739 5738 5736 5734 5732 5732 5729 5728 5727 5726 5725 5724 5723 5722 5721 5720 5718 5715
5799 5800 5800 5800 5797 5794 5790 5786 5782 5778 5774 5771 5768 5764 5761 5758 5755 5752 5750 5748 5747 5746 5743 5741 5740 5739 5737 5735 5733 5732 5731 5729 5727 5726 5725 5724 5724 5722 5721 5720 5719 5717 5715
5795 5797 5797 5796 5794 5791 5788 5785 5781 5778 5775 5772 5769 5765 5762 5759 5756 5752 5750 5749 5747 5746 5744 5742 5740 5738 5737 5735 5733 5731 5730 5728 5727 5726 5724 5723 5723 5721 5720 5719 5718 5716 5715
5790 5792 5792 5791 5790 5788 5786 5783 5780 5778 5775 5772 5768 5764 5762 5759 5756 5754 5751 5749 5747 5744 5742 5741 5739 5738 5737 5735 5733 5731 5730 5728 5727 5726 5724 5723 5721 5720 5719 5718 5716 5715 5715
5784 5785 5786 5786 5786 5785 5783 5781 5778 5777 5774 5770 5767 5764 5762 5759 5757 5754 5751 5748 5746 5743 5742 5740 5739 5737 5736 5734 5732 5730 5728 5727 5726 5725 5723 5722 5721 5720 5718 5716 5715 5713 5711
5777 5780 5781 5781 5781 5781 5779 5778 5776 5774 5773 5768 5765 5763 5761 5759 5755 5752 5750 5747 5745 5742 5741 5739 5737 5735 5734 5732 5731 5729 5727 5725 5724 5723 5721 5721 5720 5719 5718 5716 5714 5711 5709
5773 5774 5776 5776 5776 5776 5776 5775 5773 5771 5770 5766 5764 5762 5759 5756 5753 5750 5747 5744 5743 5741 5739 5736 5734 5733 5732 5731 5729 5727 5725 5723 5721 5720 5719 5718 5717 5716 5715 5714 5713 5711 5707
5768 5770 5771 5772 5772 5773 5773 5771 5769 5768 5766 5764 5762 5760 5757 5754 5751 5748 5745 5742 5739 5737 5735 5733 5731 5730 5729 5727 5725 5724 5722 5720 5719 5717 5716 5715 5715 5714 5712 5710 5708 5706 5705
5765 5768 5769 5769 5770 5770 5769 5767 5766 5764 5761 5760 5758 5757 5755 5751 5748 5745 5742 5739 5736 5734 5731 5729 5727 5726 5724 5723 5721 5719 5718 5716 5715 5714 5712 5711 5711 5710 5708 5705 5703 5702 5701
5763 5766 5767 5767 5766 5765 5765 5763 5761 5759 5757 5755 5754 5753 5752 5748 5744 5741 5738 5736 5733 5730 5727 5725 5723 5721 5719 5718 5717 5715 5713 5711 5710 5709 5708 5707 5705 5705 5702 5700 5698 5696 5695
5759 5761 5762 5762 5761 5761 5760 5757 5755 5753 5751 5750 5749 5749 5748 5744 5740 5737 5734 5732 5729 5726 5723 5720 5718 5716 5714 5712 5711 5710 5708 5705 5704 5703 5702 5700 5700 5699 5697 5695 5692 5690 5689
5753 5755 5755 5755 5755 5755 5755 5751 5750 5748 5747 5746 5744 5743 5741 5739 5735 5732 5729 5727 5724 5720 5716 5714 5711 5710 5708 5707 5706 5704 5703 5701 5699 5697 5695 5693 5693 5692 5690 5688 5687 5685 5683
5744 5747 5747 5747 5748 5748 5748 5745 5744 5744 5742 5740 5738 5736 5734 5733 5730 5726 5722 5720 5717 5714 5710 5707 5704 5703 5702 5700 5699 5698 5697 5696 5693 5691 5689 5687 5685 5684 5682 5681 5679 5677 5675
5736 5738 5738 5738 5739 5740 5740 5738 5738 5738 5736 5733 5730 5728 5727 5725 5723 5719 5715 5712 5710 5708 5704 5701 5698 5695 5694 5693 5692 5691 5689 5688 5686 5683 5681 5679 5678 5676 5674 5672 5670 5668 5666
5727 5729 5730 5730 5730 5731 5732 5733 5733 5733 5730 5726 5723 5720 5718 5715 5713 5711 5708 5705 5703 5701 5698 5695 5692 5689 5687 5685 5684 5683 5682 5680 5678 5675 5673 5671 5668 5666 5664 5662 5660 5658 5655
5720 5722 5723 5723 5722 5722 5723 5725 5725 5725 5722 5719 5716 5713 5710 5707 5703 5700 5697 5696 5693 5693 5691 5689 5687 5684 5680 5677 5676 5675 5674 5672 5670 5667 5664 5661 5658 5655 5652 5649 5647 5644 5642
5711 5713 5714 5714 5714 5715 5715 5715 5716 5717 5715 5712 5709 5707 5703 5699 5695 5691 5686 5682 5682 5681 5680 5679 5678 5675 5671 5668 5667 5665 5663 5662 5660 5658 5653 5649 5645 5642 5639 5636 5633 5630 5628